Location: Elende
(51.4317°N, 10.6316°E)
Time: 07:00:52
(UTC+00:00)

OBJECT-B - Pass Details

Date: 18 September 2020
Orbit: 421 x 433 km, 97.0° (Epoch: 09 October)

Event Time Altitude Azimuth Distance (km) Brightness Sun altitude
Exits shadow 20:34:37 11° 261° (W) 1,440 3.9 -27.6°
Maximum altitude 20:35:10 12° 272° (W) 1,422 4.0 -27.7°
Drops below altitude 10° 20:36:22 10° 293° (WNW) 1,519 4.4 -27.8°
Sets 20:39:33 0° 328° (NNW) 2,395 5.8 -28.2°
